Weather in Molodetskoe

Ukraine / Cherkassi District     48°52′42″N   30°23′31″E
temp.,
°C
wind,
m/s
gust,
m/s
humid.,
%
clouds,
%
prec.,
mm/h
press.,
hPa
HPBL,
m
9 december, thu
thu923:00+2n5996100 0.8 1009279
02:00+2n4797100 1.1 1010241
05:00+3n3697100 0.1 1010229
08:00+3n3596100 0.1 1012186
11:00+3nne2395100 0.1 1013140
14:00+4nne2295100 0.1 1014131
17:00+4e2396100 0.0 101593
20:00+5se2397100 0.0 1016112
10 december, fri
fri1023:00+5sse369788 0.0 1016224
02:00+3sse38965 0.0 1017202
05:00+3se51295100 0.0 1016368
08:00+6se71586100 0.0 1016496
11:00+7se81789100 0.0 1015705
14:00+8se9188498 0.0 1013717
17:00+8se101974100 0.0 1013720
20:00+8sse92072100 0.0 1013669
11 december, sat
sat1123:00+8se92077100 0.0 1014667
02:00+7se71686100 0.2 1014668
05:00+7se81687100 0.0 1013656
08:00+7ese81590100 0.6 1012650
11:00+8sse8128844 2.3 1013831
14:00+9s71178100 2.3 10151002
17:00+8se498197 0.0 1017289
20:00+7se5109498 0.0 1019321
12 december, sun
sun1223:00+7se51294100 0.0 1020475
02:00+6ese51296100 0.0 1020374
05:00+5ese51191100 0.0 1020330
08:00+4e61289100 0.0 1020343
11:00+6ese71379100 0.0 1019438
14:00+6ese71471100 0.0 1017540
17:00+6e71468100 0.0 1017538
20:00+5e71470100 0.1 1016470
13 december, mon
mon1323:00+5ese71368100 0.0 1016502
02:00+4ese61170100 0.1 1017485
05:00+4e5973100 0.3 1016440
08:00+3ese4983100 2.4 1016509
11:00+2ese4790100 2.1 1016381
14:00+3ese4784100 2.2 1016345
17:00+3e3685100 0.0 1017275
20:00+4e4890100 0.2 1018281